Miscellaneous Local Product
Issued by NWS North Platte, NE

Home | Current Version | Previous Version | Graphics & Text | Print | Product List | Glossary On
Versions: 1 2 3 4 5 6 7 8 9 10 11 12 13 14 15 16 17 18 19 20 21 22 23 24 25 26 27 28 29 30 31 32 33 34 35 36 37 38 39 40 41 42 43 44 45 46 47 48 49 50
000
AXUS43 KLBF 242110
MISLBF


WESTERN AND NORTH CENTRAL NEBRASKA HOURLY WEATHER ROUNDUP
NATIONAL WEATHER SERVICE NORTH PLATTE NE
300 PM CST WED DEC 24 2014

***STATIONS NOT REPORTING VARIABLES SUCH AS SKY/WEATHER OR
PRESSURE ARE PROVIDED BY THE NEBRASKA DEPARTMENT OF
ROADS...RAWS...AND APRS NETWORKS...AND ARE NOT UNDER
NATIONAL WEATHER SERVICE QUALITY CONTROL***

...OBSERVATIONS IN AND NEAR THE EASTERN PANHANDLE OF NEBRASKA...

CITY           SKY/WX    TMP DP  RH WIND       PRES   REMARKS
PINE RIDGE     PTSUNNY   37  22  54 SW7       29.58F WCI  32
CHADRON        MOSUNNY   37  25  61 CALM      29.57F
ALLIANCE       MOSUNNY   40  25  55 W10       29.60F WCI  33
SIDNEY         MOSUNNY   38  20  48 SW16      29.66F WCI  29
WHITECLAY        N/A     40  20  43 CALM        N/A
CRESCENT LAKE    N/A     45  23  41 W9          N/A
LISCO            N/A     45  15  29 W12         N/A
BIG SPRINGS      N/A     39  24  55 W10         N/A  WCI  32
$$

...OBSERVATIONS IN NORTH CENTRAL NEBRASKA...

CITY           SKY/WX    TMP DP  RH WIND       PRES   REMARKS
VALENTINE      MOSUNNY   37  22  54 SW10      29.61F WCI  30
THEDFORD       MOSUNNY   39  25  56 SW12      29.65F WCI  32
AINSWORTH      SUNNY     34  23  65 SW10      29.63F WCI  26
O`NEILL        SUNNY     33  26  75 S8        29.67F WCI  26
ORD            SUNNY     37  22  54 SW9       29.69F WCI  30
BROKEN BOW     MOSUNNY   38  23  55 SW13      29.68F WCI  30
BROWNLEE         N/A     37  19  47 S10         N/A  WCI  30
BREWSTER         N/A     40  24  54 SW13        N/A  WCI  32
ROSE             N/A     39  26  59 SE9         N/A  WCI  33
COMSTOCK         N/A     41  23  48 SW9         N/A
$$

...OBSERVATIONS IN SOUTHWEST NEBRASKA AND FAR NORTHEAST COLORADO...

CITY           SKY/WX    TMP DP  RH WIND       PRES   REMARKS
WRAY           FAIR      45  24  43 SW8       29.71S
HOLYOKE        FAIR      43  25  49 W9        29.70S
IMPERIAL       SUNNY     42  24  49 SW6       29.70F
OGALLALA       MOSUNNY   39  23  52 W14       29.68F WCI  31
NORTH PLATTE   MOSUNNY   40  20  44 SW15      29.69F WCI  32
MCCOOK         SUNNY     44  17  33 SW14      29.72F
LEXINGTON      SUNNY     39  22  50 SW13      29.71F WCI  32
PAXTON           N/A     43  28  54 W5          N/A
GOTHENBURG       N/A     41  20  42 SW7         N/A
CALLAWAY         N/A     38  27  63 SW12        N/A  WCI  30
$$

...NORTH PLATTE AREA...

CITY           SKY/WX    TMP DP  RH WIND       PRES   REMARKS
AIRPORT        MOSUNNY   40  20  44 SW15      29.69F WCI  32
$$

...SOME WEATHER OBSERVATIONS FROM AROUND THE REGION...

CITY           SKY/WX    TMP DP  RH WIND       PRES   REMARKS
DENVER         PTSUNNY   50  18  28 W6        29.67F
LARAMIE        PTSUNNY   31  16  54 S24       29.69F WCI  17
CHEYENNE       PTSUNNY   39  17  41 NW15G29   29.64F WCI  31
SCOTTSBLUFF    MOSUNNY   42  25  50 W17G26    29.62F
RAPID CITY     CLOUDY    36  27  69 SE5       29.52F WCI  32
PIERRE         CLOUDY    28  21  75 S12       29.57F WCI  18
WINNER         FAIR      34  22  61 S8        29.62F WCI  27
SIOUX FALLS    CLOUDY    26  24  92 W7        29.70F FOG     WCI  18
OMAHA          CLOUDY    30  26  85 W8        29.79S WCI  22
GRAND ISLAND   SUNNY     39  23  52 W10       29.74F WCI  32
KANSAS CITY    CLOUDY    36  30  79 NW12      29.80S WCI  28
WICHITA        MOSUNNY   45  28  51 W12       29.86F
HAYS           SUNNY     45  18  33 SW13G20   29.81F
LIBERAL        SUNNY     46  19  34 SW15      29.87F
GOODLAND       SUNNY     41  21  44 SW13      29.74F
$$



USA.gov is the U.S. government's official web portal to all federal, state and local government web resources and services.